Regional Weather Roundup
Issued by NWS

Home | Current Version | Previous Version | Text Only | Print | Product List | Glossary On
Versions: 1 2 3 4 5 6 7 8 9 10 11 12 13 14 15 16 17 18 19 20 21 22 23 24 25 26 27 28 29 30 31 32 33 34 35 36 37 38 39 40 41 42 43 44 45 46 47 48 49 50
942
ASUS42 KTBW 121911
RWRFL

FLORIDA REGIONAL WEATHER ROUNDUP
NATIONAL WEATHER SERVICE MELBOURNE FL
200 PM EST FRI FEB 12 2016

NOTE: "FAIR" INDICATES FEW OR NO CLOUDS BELOW 12,000 FEET WITH
NO SIGNIFICANT WEATHER AND/OR OBSTRUCTIONS TO VISION.

FLZ001>010-012>015-122000-
PANHANDLE OF FLORIDA

CITY           SKY/WX    TMP DP  RH WIND       PRES   REMARKS
PENSACOLA      MOSUNNY   73  53  49 W14G22    30.16F
MILTON NAS     MOSUNNY   73  53  49 W14G22    30.15F
CRESTVIEW      MOSUNNY   75  52  44 W12       30.16F
VALPARAISO     MOSUNNY   71  57  60 W10G20    30.14F
MARY ESTHER    SUNNY     68  55  64 SW15G22   30.14F
DESTIN         NOT AVBL
PANAMA CITY    FAIR      70  56  61 SW22G31   30.14F
TYNDALL AFB    MOSUNNY   68  59  72 W17       30.18
APALACHICOLA   PTSUNNY   72  58  61 W20G32    30.19F

STATION/POSITION TIME  TEMP    WIND        PRES    WAVE   SWELL
                       AIR SEA DIR/SP/G            HT/PER HT/PER
                 (UTC) (F)     (DEG/KT/KT) (MB)    (FT/S) (FT/S)
28.8N   86.0W    1850   68 70  280/ 16/ 19 1023.9F   4/ 6
28.5N   84.5W    1850   69 67  250/ 14/ 17 1023.7F   4/ 6
$$

FLZ011-016>039-122000-
NORTH FLORIDA

CITY           SKY/WX    TMP DP  RH WIND       PRES   REMARKS
MARIANNA       SUNNY     75  51  43 W13       30.11F
TALLAHASSEE    MOSUNNY   77  46  33 W17G29    30.12F
PERRY          SUNNY     73  56  55 SW25      30.16F
CROSS CITY       N/A     72  56  57 W16G28    30.18F
GAINESVILLE    PTSUNNY   75  50  41 W25G33    30.16F
MAYPORT NAS    MOSUNNY   74  48  39 W17G30    30.08F
JACKSONVILLE   MOSUNNY   75  47  36 SW24G39   30.07F
JAX NAS        MOSUNNY   76  46  34 W23G35    30.10F
JAX CRAIG      SUNNY     76  48  37 W18G32    30.09F
JAX CECIL      MOSUNNY   75  48  38 SW23G35   30.12F
FERNANDINA BEA FAIR      77  45  31 SW24G32   30.05F
ST AUGUSTINE   MOSUNNY   75  51  43 SW16G25   30.11F
PALM COAST     PTCLDY    73  54  49 SW17G29   30.15F

STATION/POSITION TIME  TEMP    WIND        PRES    WAVE   SWELL
                       AIR SEA DIR/SP/G            HT/PER HT/PER
                 (UTC) (F)     (DEG/KT/KT) (MB)    (FT/S) (FT/S)
FERNANDINA       1848          240/ 12/ 18   N/A
KEATON BEACH     1900   60     220/ 15/ 16 1021.5F
MAYPORT          1848   72 57  250/ 18/ 22 1018.4F
31.4N   80.9W    1850   56 53  210/ 10/ 10 1017.6F   3/ 6   2/ 6
ST AUGUSTINE FP  1900   72 58  250/ 14/ 18 1020.3F
$$

FLZ040-043>046-052-053-057-058-063-122000-
CENTRAL FLORIDA

CITY           SKY/WX    TMP DP  RH WIND       PRES   REMARKS
OCALA          MOSUNNY   72  50  46 W15G24    30.20F
THE VILLAGES     N/A     72  54  53 W15G21    30.09F
LEESBURG       MOSUNNY   72  52  49 W15G24    30.21F
DELAND           N/A     73  54  49 W13G23    30.18F
SANFORD        SUNNY     74  52  46 W15G23    30.18F
ORLANDO EXEC   SUNNY     75  51  43 W13G21    30.20F
ORLANDO INTL   MOSUNNY   75  49  39 SW12G22   30.20F
KISSIMMEE      MOSUNNY   73  52  46 W12G17    30.21F
WINTER HAVEN   SUNNY     73  51  46 W13       30.23F
LAKELAND       MOSUNNY   70  54  56 W12       30.24F
BARTOW         SUNNY     73  50  43 W12G21    30.23F
OKEECHOBEE     SUNNY     73  41  31 SW7       30.24F
$$

FLZ041-047-054-059-064-122000-
EAST CENTRAL FLORIDA

CITY           SKY/WX    TMP DP  RH WIND       PRES   REMARKS
NEW SMYRNA BEA SUNNY     72  50  46 SW17G25   30.18F
DAYTONA BEACH  MOSUNNY   73  53  49 SW10G26   30.16F
ORMOND BEACH   MOSUNNY   73  52  46 W15G28    30.15F
JFK SPACE CTR  SUNNY     74  50  42 SW13      30.18
TITUSVILLE     SUNNY     73  45  35 SW15      30.20F
CAPE CANAVERAL SUNNY     73  47  38 SW14      30.18
PATRICK AFB    SUNNY     74  44  34 SW10      30.20
MELBOURNE      SUNNY     73  44  35 S12       30.20F
VERO BEACH     SUNNY     73  37  27 SW7       30.22F
FORT PIERCE    SUNNY     73  38  27 W9        30.22F
STUART         SUNNY     75  36  23 CALM      30.24F

STATION/POSITION TIME  TEMP    WIND        PRES    WAVE   SWELL
                       AIR SEA DIR/SP/G            HT/PER HT/PER
                 (UTC) (F)     (DEG/KT/KT) (MB)    (FT/S) (FT/S)
28.5N   80.2W    1850   66 75  210/ 16/ 19 1022.8F   2/ 3   2/ 9
28.9N   78.5W    1850   68 72              1022.4F   3/ 5   2/ 9
$$

FLZ042-048>051-055-056-060-061-122000-
WEST CENTRAL FLORIDA

CITY           SKY/WX    TMP DP  RH WIND       PRES   REMARKS
CRYSTAL RIVER  FAIR      70  55  60 W12G23    30.22F
INVERNESS      PTSUNNY   70  55  60 SW10G17   30.22F
BROOKSVILLE    MOSUNNY   72  53  51 W17G25    30.24F
ZEPHYRHILLS    FAIR      73  48  40 W13G22    30.23F
CLEARWATER     SUNNY     70  53  54 SW15      30.25F
TAMPA INTL     MOSUNNY   70  55  59 SW10      30.25F
TAMPA EXEC     SUNNY     73  54  49 SW9       30.24F
PLANT CITY     SUNNY     73  57  56 SW9G16    30.25F
MACDILL AFB    SUNNY     69  57  65 SW15      30.24F
PETER O KNIGHT SUNNY     73  57  56 SW8       30.25F
ST PETERSBURG  SUNNY     67  52  58 W13G18    30.23F
SARASOTA       SUNNY     67  48  50 SW10      30.25F
VENICE ARPT    FAIR      66  48  52 W6        30.26F

STATION/POSITION TIME  TEMP    WIND        PRES    WAVE   SWELL
                       AIR SEA DIR/SP/G            HT/PER HT/PER
                 (UTC) (F)     (DEG/KT/KT) (MB)    (FT/S) (FT/S)
28.5N   84.5W    1850   69 67  250/ 14/ 17 1023.7F   4/ 6
CEDAR KEY        1900   62     250/  8/ 11 1023.5F
VENICE           1900   64 61  240/  4/  4 1024.1F
$$

FLZ062-065-066-069-070-075>078-122000-
SOUTHWEST FLORIDA AND KEYS

CITY           SKY/WX    TMP DP  RH WIND       PRES   REMARKS
PUNTA GORDA    SUNNY     71  47  42 SW8       30.26F
FT MYERS       SUNNY     72  38  29 MISG      30.24F
SOUTHWEST INTL SUNNY     74  40  29 VRB7      30.24F
NAPLES         SUNNY     69  52  54 W12       30.25F
MARATHON       SUNNY     71  58  63 NE10      30.22F
KEY WEST NAS   SUNNY     72  58  61 N12       30.23F
KEY WEST INTL  SUNNY     72  58  61 NE10      30.23F

STATION/POSITION TIME  TEMP    WIND        PRES    WAVE   SWELL
                       AIR SEA DIR/SP/G            HT/PER HT/PER
                 (UTC) (F)     (DEG/KT/KT) (MB)    (FT/S) (FT/S)
VENICE           1900   64 61  240/  4/  4 1024.1F
26.0N   85.6W    1850   72 80  210/  2/  4 1025.1F   1/ 5   2/ 5
SAND KEY         1850   67      50/ 14/ 16 1023.9F
LONG KEY         1900   66 64   20/  7/  8 1024.0F
MOLASSES REEF    1900   70 77   90/ 10/ 13 1023.1F
$$

FLZ067-068-071>074-168-172>174-122000-
SOUTHEAST FLORIDA

CITY           SKY/WX    TMP DP  RH WIND       PRES   REMARKS
W PALM BEACH   MOSUNNY   73  53  49 E6        30.24F
POMPANO BEACH  SUNNY     72  56  57 VRB5      30.24F
FT LAUDER-EXEC MOSUNNY   74  52  46 VRB7      30.23F
FT LAUDERDALE  MOSUNNY   73  56  54 VRB5      30.23F
PEMBROKE PINES MOSUNNY   75  55  49 NE6       30.24F
OPA LOCKA      MOSUNNY   74  55  51 E8        30.23F
MIAMI          MOSUNNY   74  55  51 VRB3      30.23F
VIRGINIA KEY     N/A     73  52  48 E8        30.23F
WEST KENDALL   SUNNY     74  56  53 E8        30.23F
HOMESTEAD      SUNNY     73  55  53 VRB7      30.22
FLAMINGO       NOT AVBL
EVERGLADES CTY NOT AVBL

STATION/POSITION TIME  TEMP    WIND        PRES    WAVE   SWELL
                       AIR SEA DIR/SP/G            HT/PER HT/PER
                 (UTC) (F)     (DEG/KT/KT) (MB)    (FT/S) (FT/S)
LAKE WORTH       1848   69 76   40/  5/  7 1023.8F
SETTLEMENT POINT 1900   67      60/  4/  4 1024.5F

$$




USA.gov is the U.S. government's official web portal to all federal, state and local government web resources and services.